DW6487 Weather Reports


time (UTC)temp
C
wind
direction
speed
KPH
gust
KPH
rain 1hr
cm
rain 24hr
cm
rain mn
cm
humidity
%
barometer
mb
20260506084623 11 17 0.0 3.2 0.00 0.00 0.00 91 1015.6
20260506083059 11 355 0.0 3.2 0.00 0.00 0.00 90 1015.6
20260506081601 11 360 0.0 12.9 0.00 0.00 0.00 90 1015.5
20260506073059 11 5 0.0 14.5 0.00 0.00 0.00 89 1015.5
20260506071601 11 17 1.6 17.7 0.00 0.00 0.00 89 1015.4
20260506061600 11 18 0.0 1.6 0.00 0.00 0.00 88 1015.9
20260506050104 11 360 0.0 3.2 0.00 0.00 0.00 89 1015.7
20260506044704 11 27 0.0 16.1 0.00 0.00 0.00 89 1015.6
20260506043109 11 5 0.0 3.2 0.00 0.00 0.00 89 1015.8
20260506041604 11 13 0.0 12.9 0.00 0.00 0.00 89 1015.7
20260506040059 10 22 0.0 17.7 0.00 0.00 0.00 89 1015.6
20260506034628 10 5 0.0 3.2 0.00 0.00 0.00 89 1015.4
20260506033104 10 11 0.0 14.5 0.00 0.00 0.00 89 1015.4
20260506031606 10 16 0.0 16.1 0.00 0.00 0.00 90 1015.3
20260506030058 10 16 0.0 11.3 0.00 0.00 0.00 90 1015.2
20260506024559 10 350 0.0 16.1 0.00 0.00 0.00 90 1015.2
20260506023111 10 5 1.6 14.5 0.00 0.00 0.00 90 1015.3
20260506021558 10 17 1.6 14.5 0.00 0.00 0.00 90 1015.3
20260506020058 10 5 0.0 9.7 0.00 0.00 0.00 90 1015.5
20260506014559 10 21 0.0 3.2 0.00 0.00 0.00 89 1015.4
20260506013059 10 15 0.0 9.7 0.00 0.00 0.00 88 1015.2
20260506011623 11 26 0.0 14.5 0.00 0.00 0.00 88 1015.0
20260506010103 11 355 0.0 16.1 0.00 0.00 0.00 87 1014.7
20260506004626 11 17 0.0 11.3 0.00 0.00 0.00 85 1014.4
20260506003112 12 22 0.0 9.7 0.00 0.00 0.00 85 1014.2
20260506001559 11 219 0.0 12.9 0.00 0.00 0.00 83 1014.0
20260506000058 12 11 0.0 6.4 0.00 0.00 0.00 82 1013.6
20260505234637 12 11 0.0 16.1 0.00 0.00 0.00 78 1013.5
20260505233112 12 13 0.0 12.9 0.00 0.00 0.00 76 1013.4
20260505231601 13 19 0.0 8.0 0.00 0.00 0.00 72 1013.1
20260505230104 14 17 0.0 6.4 0.00 0.00 0.00 69 1012.8
20260505224559 14 355 0.0 3.2 0.00 0.00 0.00 65 1012.7
20260505223059 15 5 0.0 3.2 0.00 0.00 0.00 61 1012.6
20260505221603 16 17 0.0 8.0 0.00 0.00 0.00 59 1012.5
20260505220106 16 15 0.0 14.5 0.00 0.00 0.00 56 1012.2
20260505214605 17 315 0.0 14.5 0.00 0.00 0.00 53 1012.1
20260505213104 18 21 0.0 11.3 0.00 0.00 0.00 51 1011.9
20260505211603 18 15 0.0 14.5 0.00 0.00 0.00 49 1012.0
20260505210059 18 5 0.0 16.1 0.00 0.00 0.00 48 1012.0
20260505204608 18 30 1.6 22.5 0.00 0.00 0.00 47 1012.1
20260505203059 19 348 1.6 16.1 0.00 0.00 0.00 47 1011.9
20260505201602 19 298 0.0 19.3 0.00 0.00 0.00 47 1012.0
20260505200104 20 304 1.6 16.1 0.00 0.00 0.00 46 1011.8
20260505194559 20 273 3.2 20.9 0.00 0.00 0.00 46 1011.7
20260505193100 20 16 1.6 16.1 0.00 0.00 0.00 45 1011.4
20260505191602 20 12 0.0 14.5 0.00 0.00 0.00 48 1011.4
20260505190058 21 26 0.0 16.1 0.00 0.00 0.00 46 1011.2
20260505184603 21 183 0.0 9.7 0.00 0.00 0.00 47 1011.3
20260505183059 21 182 0.0 3.2 0.00 0.00 0.00 48 1011.2
20260505181600 21 13 0.0 8.0 0.00 0.00 0.00 50 1011.4
20260505180104 21 21 0.0 4.8 0.00 0.00 0.00 48 1011.5
20260505174613 21 13 0.0 9.7 0.00 0.00 0.00 48 1011.5
20260505173059 21 18 0.0 3.2 0.00 0.00 0.00 49 1011.5
20260505171559 21 16 0.0 3.2 0.00 0.00 0.00 49 1011.6
20260505170137 20 360 0.0 3.2 0.00 0.00 0.00 51 1011.7
20260505164559 20 11 0.0 3.2 0.00 0.00 0.00 51 1011.7
20260505163058 20 191 0.0 3.2 0.00 0.00 0.00 54 1011.6
20260505161604 20 355 0.0 4.8 0.00 0.00 0.00 53 1011.5
20260505153100 18 13 0.0 3.2 0.00 0.00 0.00 57 1011.6
20260505151558 18 19 0.0 3.2 0.00 0.00 0.00 57 1011.7
20260505124559 12 187 0.0 0.0 0.00 0.03 0.00 67 1011.5
20260505123114 13 187 0.0 0.0 0.00 0.03 0.00 65 1011.4
20260505121558 12 187 0.0 0.0 0.00 0.03 0.00 66 1011.2
20260505120059 12 187 0.0 0.0 0.00 0.03 0.00 68 1011.2
20260505114615 11 188 0.0 0.0 0.00 0.03 0.00 72 1011.2
20260505113100 11 187 0.0 0.0 0.00 0.03 0.00 73 1011.2
20260505111610 11 187 0.0 0.0 0.00 0.03 0.00 74 1011.1
20260505101559 8 187 0.0 0.0 0.00 0.03 0.00 80 1010.5
20260505100100 8 187 0.0 0.0 0.00 0.03 0.00 82 1010.3
20260505094600 7 187 0.0 0.0 0.00 0.03 0.00 84 1010.1
20260505093059 7 187 0.0 0.0 0.00 0.03 0.00 85 1010.2
20260505091559 6 187 0.0 0.0 0.00 0.03 0.00 85 1010.0
20260505090101 6 187 0.0 0.0 0.00 0.03 0.00 86 1009.8